SKYSAT-C10

Last updated on Sun Jun 21 2026 00:02:52 GMT+0000 (Coordinated Universal Time)

1 42988U 17068B 26171.35690127 .00007409 00000+0 22285-3 0 9994 2 42988 97.4513 308.2348 0001114 100.0018 260.1351 15.34683060482847
UTC large
Height (km)
Speed (km/s)
/
Latitude / Longitude
Inclination (degrees)
Orbital Period (minutes)
Azimuth
Elevation
Range (km)
Doppler Factor

Next 0 passes for location: London (51.5072 / 0.1276)

No passes found over London.
SKYSAT-C10